Time,TemperatureF,DewpointF,PressureIn,WindDirection,WindDirectionDegrees,WindSpeedMPH,WindSpeedGustMPH,Humidity,HourlyPrecipIn,Conditions,Clouds,dailyrainin,SolarRadiationWatts/m^2,SoftwareType,DateUTC
2013-05-31 00:00:00,64.5,62.4,29.74,SE,136,9.0,18.0,93,0.06,,,0.00,0,Wunderground v.1.15,2013-05-31 05:00:00,
2013-05-31 00:10:00,64.5,62.7,29.76,SE,142,14.0,14.0,94,0.04,,,0.00,0,Wunderground v.1.15,2013-05-31 05:10:00,
2013-05-31 00:20:00,64.4,62.6,29.77,SSE,147,11.0,11.0,94,0.00,,,0.00,0,Wunderground v.1.15,2013-05-31 05:20:00,
2013-05-31 00:25:00,64.3,62.5,29.78,SSE,160,8.0,11.0,94,0.00,,,0.00,0,Wunderground v.1.15,2013-05-31 05:25:00,
2013-05-31 00:30:00,64.3,62.5,29.78,SSE,163,6.0,6.0,94,0.00,,,0.00,0,Wunderground v.1.15,2013-05-31 05:30:00,
2013-05-31 00:35:00,64.3,62.5,29.78,SSE,163,4.0,6.0,94,0.00,,,0.00,0,Wunderground v.1.15,2013-05-31 05:35:00,
2013-05-31 00:40:00,64.2,62.4,29.77,SSE,163,4.0,5.0,94,0.00,,,0.00,0,Wunderground v.1.15,2013-05-31 05:40:00,
2013-05-31 00:45:00,64.2,62.4,29.77,SSE,162,5.0,6.0,94,0.00,,,0.00,0,Wunderground v.1.15,2013-05-31 05:45:00,
2013-05-31 00:50:00,64.2,62.4,29.76,SSE,165,6.0,6.0,94,0.00,,,0.00,0,Wunderground v.1.15,2013-05-31 05:50:00,
2013-05-31 00:55:00,64.1,62.3,29.76,SSE,166,5.0,7.0,94,0.00,,,0.00,0,Wunderground v.1.15,2013-05-31 05:55:00,
2013-05-31 01:00:00,64.1,62.3,29.76,South,173,6.0,6.0,94,0.00,,,0.00,0,Wunderground v.1.15,2013-05-31 06:00:00,
2013-05-31 01:10:00,64.0,62.2,29.77,South,170,7.0,7.0,94,0.00,,,0.00,0,Wunderground v.1.15,2013-05-31 06:10:00,
2013-05-31 01:15:00,64.0,62.2,29.77,South,172,7.0,7.0,94,0.00,,,0.00,0,Wunderground v.1.15,2013-05-31 06:15:00,
2013-05-31 01:25:00,64.0,62.2,29.78,South,171,6.0,10.0,94,0.00,,,0.00,0,Wunderground v.1.15,2013-05-31 06:25:00,
2013-05-31 01:30:00,63.9,62.1,29.78,SSE,159,6.0,6.0,94,0.00,,,0.00,0,Wunderground v.1.15,2013-05-31 06:30:00,
2013-05-31 01:35:00,63.9,62.1,29.78,South,180,6.0,13.0,94,0.00,,,0.00,0,Wunderground v.1.15,2013-05-31 06:35:00,
2013-05-31 01:40:00,63.9,62.1,29.78,South,178,6.0,6.0,94,0.00,,,0.00,0,Wunderground v.1.15,2013-05-31 06:40:00,
2013-05-31 01:45:00,63.9,62.1,29.78,SSE,167,6.0,6.0,94,0.00,,,0.00,0,Wunderground v.1.15,2013-05-31 06:45:00,
2013-05-31 01:50:00,63.9,62.1,29.78,SSE,166,5.0,5.0,94,0.00,,,0.00,0,Wunderground v.1.15,2013-05-31 06:50:00,
2013-05-31 01:55:00,63.9,62.1,29.78,SSE,163,5.0,5.0,94,0.00,,,0.00,0,Wunderground v.1.15,2013-05-31 06:55:00,
2013-05-31 02:00:00,63.9,62.1,29.78,SSE,163,6.0,6.0,94,0.00,,,0.00,0,Wunderground v.1.15,2013-05-31 07:00:00,
2013-05-31 02:10:00,63.9,61.8,29.78,SSE,163,6.0,6.0,93,0.00,,,0.00,0,Wunderground v.1.15,2013-05-31 07:10:00,
2013-05-31 02:15:00,63.9,61.8,29.78,SSE,162,6.0,6.0,93,0.00,,,0.00,0,Wunderground v.1.15,2013-05-31 07:15:00,
2013-05-31 02:20:00,63.8,61.7,29.77,SSE,157,6.0,6.0,93,0.00,,,0.00,0,Wunderground v.1.15,2013-05-31 07:20:00,
2013-05-31 02:30:00,63.8,61.7,29.77,SSE,154,6.0,6.0,93,0.00,,,0.00,0,Wunderground v.1.15,2013-05-31 07:30:00,
2013-05-31 02:35:00,63.9,62.1,29.77,SSE,166,7.0,8.0,94,0.00,,,0.00,0,Wunderground v.1.15,2013-05-31 07:35:00,
2013-05-31 02:40:00,64.0,62.2,29.76,SSE,163,7.0,7.0,94,0.00,,,0.00,0,Wunderground v.1.15,2013-05-31 07:40:00,
2013-05-31 02:45:00,64.2,62.1,29.76,SSE,161,7.0,7.0,93,0.00,,,0.00,0,Wunderground v.1.15,2013-05-31 07:45:00,
2013-05-31 02:50:00,64.2,62.1,29.77,SSE,163,6.0,6.0,93,0.00,,,0.00,0,Wunderground v.1.15,2013-05-31 07:50:00,
2013-05-31 02:55:00,64.3,62.2,29.77,SSE,165,5.0,6.0,93,0.00,,,0.00,0,Wunderground v.1.15,2013-05-31 07:55:00,
2013-05-31 03:05:00,64.3,62.2,29.76,SSE,163,4.0,6.0,93,0.00,,,0.00,0,Wunderground v.1.15,2013-05-31 08:05:00,
2013-05-31 03:10:00,64.2,62.1,29.76,SSE,159,5.0,5.0,93,0.00,,,0.00,0,Wunderground v.1.15,2013-05-31 08:10:00,
2013-05-31 03:15:00,64.2,62.1,29.76,SSE,159,6.0,6.0,93,0.00,,,0.00,0,Wunderground v.1.15,2013-05-31 08:15:00,
2013-05-31 03:20:00,64.1,62.0,29.76,SSE,157,5.0,6.0,93,0.00,,,0.00,0,Wunderground v.1.15,2013-05-31 08:20:00,
2013-05-31 03:25:00,64.1,62.3,29.76,SSE,151,5.0,6.0,94,0.00,,,0.00,0,Wunderground v.1.15,2013-05-31 08:25:00,
2013-05-31 03:35:00,64.1,62.3,29.77,SSE,154,5.0,6.0,94,0.00,,,0.00,0,Wunderground v.1.15,2013-05-31 08:35:00,
2013-05-31 03:40:00,64.1,62.3,29.77,SSE,154,4.0,4.0,94,0.00,,,0.00,0,Wunderground v.1.15,2013-05-31 08:40:00,
2013-05-31 03:45:00,64.1,62.3,29.77,SSE,154,4.0,4.0,94,0.00,,,0.00,0,Wunderground v.1.15,2013-05-31 08:45:00,
2013-05-31 03:50:00,64.2,62.4,29.77,SSE,154,4.0,5.0,94,0.00,,,0.00,0,Wunderground v.1.15,2013-05-31 08:50:00,
2013-05-31 03:55:00,64.2,62.4,29.77,SSE,154,4.0,5.0,94,0.00,,,0.00,0,Wunderground v.1.15,2013-05-31 08:55:00,
2013-05-31 04:00:00,64.2,62.4,29.78,SSE,155,5.0,5.0,94,0.00,,,0.00,0,Wunderground v.1.15,2013-05-31 09:00:00,
2013-05-31 04:05:00,64.2,62.4,29.77,SSE,154,6.0,6.0,94,0.00,,,0.00,0,Wunderground v.1.15,2013-05-31 09:05:00,
2013-05-31 04:10:00,64.2,62.4,29.78,SSE,155,5.0,5.0,94,0.00,,,0.00,0,Wunderground v.1.15,2013-05-31 09:10:00,
2013-05-31 04:15:00,64.2,62.7,29.78,SSE,155,4.0,5.0,95,0.00,,,0.00,0,Wunderground v.1.15,2013-05-31 09:15:00,
2013-05-31 04:20:00,64.2,62.7,29.78,SSE,155,5.0,5.0,95,0.00,,,0.00,0,Wunderground v.1.15,2013-05-31 09:20:00,
2013-05-31 04:25:00,64.2,62.7,29.78,SSE,155,4.0,5.0,95,0.00,,,0.00,0,Wunderground v.1.15,2013-05-31 09:25:00,
2013-05-31 04:30:00,64.2,62.7,29.78,SSE,155,4.0,6.0,95,0.00,,,0.00,0,Wunderground v.1.15,2013-05-31 09:30:00,
2013-05-31 04:40:00,63.9,62.1,29.78,SSE,155,5.0,5.0,94,0.00,,,0.00,0,Wunderground v.1.15,2013-05-31 09:40:00,
2013-05-31 04:45:00,63.9,62.1,29.78,SSE,155,4.0,5.0,94,0.00,,,0.00,0,Wunderground v.1.15,2013-05-31 09:45:00,
2013-05-31 04:50:00,63.8,62.3,29.77,SSE,155,4.0,5.0,95,0.00,,,0.00,0,Wunderground v.1.15,2013-05-31 09:50:00,
2013-05-31 04:55:00,63.7,62.2,29.77,SSE,155,4.0,7.0,95,0.00,,,0.00,0,Wunderground v.1.15,2013-05-31 09:55:00,
2013-05-31 05:00:00,63.6,62.1,29.77,SSE,153,5.0,5.0,95,0.00,,,0.00,0,Wunderground v.1.15,2013-05-31 10:00:00,
2013-05-31 05:05:00,63.6,62.1,29.77,SSE,153,5.0,5.0,95,0.00,,,0.00,0,Wunderground v.1.15,2013-05-31 10:05:00,
2013-05-31 05:15:00,63.4,61.9,29.76,SSE,153,4.0,5.0,95,0.00,,,0.00,0,Wunderground v.1.15,2013-05-31 10:15:00,
2013-05-31 05:20:00,63.3,61.8,29.76,SSE,153,3.0,3.0,95,0.00,,,0.00,0,Wunderground v.1.15,2013-05-31 10:20:00,
2013-05-31 05:25:00,63.2,61.7,29.77,SSE,153,2.0,3.0,95,0.00,,,0.00,0,Wunderground v.1.15,2013-05-31 10:25:00,
2013-05-31 05:30:00,63.2,61.7,29.77,SSE,153,2.0,2.0,95,0.00,,,0.00,0,Wunderground v.1.15,2013-05-31 10:30:00,
2013-05-31 05:35:00,63.2,61.7,29.76,SSE,153,3.0,5.0,95,0.00,,,0.00,0,Wunderground v.1.15,2013-05-31 10:35:00,
2013-05-31 05:45:00,63.1,61.6,29.76,SSE,153,2.0,3.0,95,0.00,,,0.00,9,Wunderground v.1.15,2013-05-31 10:45:00,
2013-05-31 05:50:00,63.0,61.8,29.77,SSE,153,2.0,2.0,96,0.00,,,0.00,11,Wunderground v.1.15,2013-05-31 10:50:00,
2013-05-31 05:55:00,63.0,61.8,29.76,SSE,153,2.0,3.0,96,0.00,,,0.00,16,Wunderground v.1.15,2013-05-31 10:55:00,
2013-05-31 06:00:00,62.9,61.4,29.77,SSE,153,2.0,2.0,95,0.00,,,0.00,19,Wunderground v.1.15,2013-05-31 11:00:00,
2013-05-31 06:05:00,62.8,61.3,29.76,SSE,153,2.0,3.0,95,0.00,,,0.00,25,Wunderground v.1.15,2013-05-31 11:05:00,
2013-05-31 06:10:00,62.8,61.6,29.77,SSE,153,2.0,3.0,96,0.00,,,0.00,32,Wunderground v.1.15,2013-05-31 11:10:00,
2013-05-31 06:20:00,63.0,61.8,29.78,SSE,153,3.0,4.0,96,0.00,,,0.00,53,Wunderground v.1.15,2013-05-31 11:20:00,
2013-05-31 06:25:00,63.1,61.9,29.79,SSE,153,3.0,4.0,96,0.00,,,0.00,47,Wunderground v.1.15,2013-05-31 11:25:00,
2013-05-31 06:30:00,63.2,62.0,29.79,SSE,153,4.0,4.0,96,0.00,,,0.00,42,Wunderground v.1.15,2013-05-31 11:30:00,
2013-05-31 06:35:00,63.2,62.0,29.79,SSE,152,4.0,6.0,96,0.00,,,0.00,47,Wunderground v.1.15,2013-05-31 11:35:00,
2013-05-31 06:40:00,63.3,62.1,29.79,SSE,150,5.0,5.0,96,0.00,,,0.00,63,Wunderground v.1.15,2013-05-31 11:40:00,
2013-05-31 06:50:00,63.5,62.3,29.79,SE,136,7.0,8.0,96,0.00,,,0.00,97,Wunderground v.1.15,2013-05-31 11:50:00,
2013-05-31 06:55:00,63.7,62.5,29.80,SE,139,9.0,9.0,96,0.00,,,0.00,151,Wunderground v.1.15,2013-05-31 11:55:00,
2013-05-31 07:00:00,63.9,63.0,29.80,SE,139,9.0,10.0,97,0.00,,,0.00,146,Wunderground v.1.15,2013-05-31 12:00:00,
2013-05-31 07:05:00,64.0,63.1,29.80,SE,140,9.0,10.0,97,0.00,,,0.00,207,Wunderground v.1.15,2013-05-31 12:05:00,
2013-05-31 07:10:00,64.3,63.4,29.80,SE,140,10.0,10.0,97,0.00,,,0.00,244,Wunderground v.1.15,2013-05-31 12:10:00,
2013-05-31 07:15:00,64.6,63.7,29.81,SSE,150,8.0,10.0,97,0.00,,,0.00,225,Wunderground v.1.15,2013-05-31 12:15:00,
2013-05-31 07:25:00,65.1,63.9,29.81,SSE,161,7.0,7.0,96,0.00,,,0.00,193,Wunderground v.1.15,2013-05-31 12:25:00,
2013-05-31 07:30:00,65.3,64.1,29.82,SSE,165,8.0,10.0,96,0.00,,,0.00,163,Wunderground v.1.15,2013-05-31 12:30:00,
2013-05-31 07:35:00,65.6,64.1,29.82,SSE,167,9.0,10.0,95,0.00,,,0.00,135,Wunderground v.1.15,2013-05-31 12:35:00,
2013-05-31 07:40:00,65.8,64.0,29.82,SSE,163,10.0,10.0,94,0.00,,,0.00,139,Wunderground v.1.15,2013-05-31 12:40:00,
2013-05-31 07:45:00,65.8,64.0,29.82,South,184,9.0,10.0,94,0.00,,,0.00,144,Wunderground v.1.15,2013-05-31 12:45:00,
2013-05-31 07:55:00,65.9,64.1,29.81,South,178,10.0,13.0,94,0.00,,,0.00,134,Wunderground v.1.15,2013-05-31 12:55:00,
2013-05-31 08:00:00,65.9,63.8,29.81,SSE,155,11.0,12.0,93,0.00,,,0.00,127,Wunderground v.1.15,2013-05-31 13:00:00,
2013-05-31 08:05:00,66.0,64.2,29.80,SSE,150,11.0,16.0,94,0.00,,,0.00,84,Wunderground v.1.15,2013-05-31 13:05:00,
2013-05-31 08:10:00,66.0,63.9,29.80,South,188,11.0,16.0,93,0.00,,,0.00,77,Wunderground v.1.15,2013-05-31 13:10:00,
2013-05-31 08:15:00,66.0,63.9,29.80,South,171,11.0,16.0,93,0.00,,,0.00,72,Wunderground v.1.15,2013-05-31 13:15:00,
2013-05-31 08:20:00,66.0,63.9,29.81,South,173,11.0,13.0,93,0.00,,,0.00,77,Wunderground v.1.15,2013-05-31 13:20:00,
2013-05-31 08:30:00,66.1,64.0,29.81,South,180,12.0,13.0,93,0.00,,,0.00,104,Wunderground v.1.15,2013-05-31 13:30:00,
2013-05-31 08:35:00,66.1,64.0,29.80,South,179,11.0,13.0,93,0.00,,,0.00,109,Wunderground v.1.15,2013-05-31 13:35:00,
2013-05-31 08:40:00,66.3,64.2,29.80,South,180,12.0,14.0,93,0.00,,,0.00,127,Wunderground v.1.15,2013-05-31 13:40:00,
2013-05-31 08:45:00,66.5,64.4,29.80,South,188,12.0,15.0,93,0.00,,,0.00,155,Wunderground v.1.15,2013-05-31 13:45:00,
2013-05-31 08:50:00,66.7,64.3,29.81,South,188,15.0,15.0,92,0.00,,,0.00,144,Wunderground v.1.15,2013-05-31 13:50:00,
2013-05-31 09:00:00,67.1,64.7,29.82,SSW,212,15.0,18.0,92,0.00,,,0.00,178,Wunderground v.1.15,2013-05-31 14:00:00,
2013-05-31 09:05:00,67.2,64.5,29.82,SSW,207,17.0,18.0,91,0.00,,,0.00,197,Wunderground v.1.15,2013-05-31 14:05:00,
2013-05-31 09:10:00,67.4,64.7,29.83,SSW,199,19.0,19.0,91,0.00,,,0.00,169,Wunderground v.1.15,2013-05-31 14:10:00,
2013-05-31 09:15:00,67.6,64.6,29.83,SSW,198,19.0,19.0,90,0.00,,,0.00,142,Wunderground v.1.15,2013-05-31 14:15:00,
2013-05-31 09:20:00,67.5,64.8,29.83,SSW,212,18.0,18.0,91,0.00,,,0.00,102,Wunderground v.1.15,2013-05-31 14:20:00,
2013-05-31 09:25:00,67.5,64.5,29.83,SSW,198,17.0,18.0,90,0.00,,,0.00,81,Wunderground v.1.15,2013-05-31 14:25:00,
2013-05-31 09:35:00,67.3,64.3,29.83,SSW,213,16.0,16.0,90,0.00,,,0.00,54,Wunderground v.1.15,2013-05-31 14:35:00,
2013-05-31 09:40:00,67.2,64.2,29.83,SSW,199,15.0,16.0,90,0.00,,,0.00,44,Wunderground v.1.15,2013-05-31 14:40:00,
2013-05-31 09:45:00,67.1,64.1,29.83,SSW,212,15.0,16.0,90,0.00,,,0.00,32,Wunderground v.1.15,2013-05-31 14:45:00,
2013-05-31 09:50:00,66.9,63.9,29.82,SW,218,15.0,15.0,90,0.00,,,0.00,30,Wunderground v.1.15,2013-05-31 14:50:00,
2013-05-31 09:55:00,66.7,63.7,29.82,SW,217,14.0,15.0,90,0.00,,,0.00,30,Wunderground v.1.15,2013-05-31 14:55:00,
2013-05-31 10:05:00,66.3,63.0,29.82,SW,215,14.0,15.0,89,0.00,,,0.00,21,Wunderground v.1.15,2013-05-31 15:05:00,
2013-05-31 10:10:00,66.2,62.5,29.83,SSW,213,13.0,15.0,88,0.00,,,0.00,19,Wunderground v.1.15,2013-05-31 15:10:00,
2013-05-31 10:15:00,66.0,62.3,29.84,SSW,213,13.0,15.0,88,0.00,,,0.00,19,Wunderground v.1.15,2013-05-31 15:15:00,
2013-05-31 10:20:00,65.8,62.8,29.85,SW,222,15.0,21.0,90,0.00,,,0.01,19,Wunderground v.1.15,2013-05-31 15:20:00,
2013-05-31 10:30:00,65.4,62.7,29.86,SSW,213,18.0,18.0,91,0.09,,,0.02,21,Wunderground v.1.15,2013-05-31 15:30:00,
2013-05-31 10:35:00,65.1,62.1,29.85,SW,225,18.0,21.0,90,0.09,,,0.03,18,Wunderground v.1.15,2013-05-31 15:35:00,
2013-05-31 10:40:00,64.9,61.9,29.84,West,267,18.0,18.0,90,0.11,,,0.04,19,Wunderground v.1.15,2013-05-31 15:40:00,
2013-05-31 10:45:00,64.6,61.6,29.84,WSW,247,15.0,18.0,90,0.08,,,0.05,19,Wunderground v.1.15,2013-05-31 15:45:00,
2013-05-31 10:50:00,64.2,61.2,29.85,WSW,248,13.0,13.0,90,0.10,,,0.06,19,Wunderground v.1.15,2013-05-31 15:50:00,
2013-05-31 10:55:00,64.0,61.3,29.85,WSW,242,12.0,13.0,91,0.14,,,0.07,21,Wunderground v.1.15,2013-05-31 15:55:00,
2013-05-31 11:00:00,63.8,61.1,29.84,SSW,209,10.0,10.0,91,0.19,,,0.09,23,Wunderground v.1.15,2013-05-31 16:00:00,
2013-05-31 11:10:00,63.6,60.9,29.82,SSE,161,5.0,5.0,91,0.26,,,0.13,74,Wunderground v.1.15,2013-05-31 16:10:00,
2013-05-31 11:15:00,63.5,61.1,29.79,SE,132,5.0,6.0,92,0.25,,,0.15,118,Wunderground v.1.15,2013-05-31 16:15:00,
2013-05-31 11:20:00,63.2,61.1,29.78,East,98,6.0,9.0,93,0.11,,,0.15,174,Wunderground v.1.15,2013-05-31 16:20:00,
2013-05-31 11:25:00,63.2,61.4,29.78,ESE,109,8.0,9.0,94,0.09,,,0.16,139,Wunderground v.1.15,2013-05-31 16:25:00,
2013-05-31 11:30:00,63.1,61.3,29.78,ESE,105,10.0,11.0,94,0.07,,,0.16,183,Wunderground v.1.15,2013-05-31 16:30:00,
2013-05-31 11:35:00,63.2,61.4,29.79,ESE,113,10.0,11.0,94,0.04,,,0.16,169,Wunderground v.1.15,2013-05-31 16:35:00,
2013-05-31 11:40:00,63.2,61.4,29.80,ESE,112,9.0,12.0,94,0.00,,,0.16,130,Wunderground v.1.15,2013-05-31 16:40:00,
2013-05-31 11:45:00,63.4,61.6,29.80,ESE,114,8.0,12.0,94,0.00,,,0.16,109,Wunderground v.1.15,2013-05-31 16:45:00,
2013-05-31 11:50:00,63.4,61.6,29.81,ESE,111,8.0,8.0,94,0.00,,,0.16,104,Wunderground v.1.15,2013-05-31 16:50:00,
2013-05-31 11:55:00,63.5,61.7,29.81,ESE,111,7.0,8.0,94,0.00,,,0.17,113,Wunderground v.1.15,2013-05-31 16:55:00,
2013-05-31 12:00:00,63.5,61.7,29.80,ESE,110,7.0,10.0,94,0.00,,,0.17,128,Wunderground v.1.15,2013-05-31 17:00:00,
2013-05-31 12:10:00,63.6,61.8,29.80,ESE,103,10.0,10.0,94,0.00,,,0.17,113,Wunderground v.1.15,2013-05-31 17:10:00,
2013-05-31 12:20:00,63.8,62.3,29.80,ESE,109,9.0,10.0,95,0.00,,,0.17,155,Wunderground v.1.15,2013-05-31 17:20:00,
2013-05-31 12:25:00,63.9,62.4,29.79,ESE,105,9.0,10.0,95,0.00,,,0.18,193,Wunderground v.1.15,2013-05-31 17:25:00,
2013-05-31 12:30:00,63.9,62.4,29.78,East,94,8.0,8.0,95,0.13,,,0.19,199,Wunderground v.1.15,2013-05-31 17:30:00,
2013-05-31 12:35:00,64.2,62.7,29.78,ESE,103,8.0,10.0,95,0.07,,,0.19,206,Wunderground v.1.15,2013-05-31 17:35:00,
2013-05-31 12:40:00,64.3,62.8,29.78,ESE,115,9.0,11.0,95,0.04,,,0.19,195,Wunderground v.1.15,2013-05-31 17:40:00,
2013-05-31 12:50:00,65.0,63.5,29.77,ESE,113,13.0,14.0,95,0.00,,,0.19,457,Wunderground v.1.15,2013-05-31 17:50:00,
2013-05-31 12:55:00,65.3,63.5,29.77,ESE,113,14.0,14.0,94,0.00,,,0.19,185,Wunderground v.1.15,2013-05-31 17:55:00,
2013-05-31 13:00:00,65.5,63.7,29.76,ESE,107,14.0,14.0,94,0.00,,,0.19,346,Wunderground v.1.15,2013-05-31 18:00:00,
2013-05-31 13:05:00,65.8,64.0,29.77,ESE,112,12.0,14.0,94,0.00,,,0.19,113,Wunderground v.1.15,2013-05-31 18:05:00,
2013-05-31 13:10:00,65.8,64.0,29.78,ESE,115,8.0,8.0,94,0.00,,,0.19,72,Wunderground v.1.15,2013-05-31 18:10:00,
2013-05-31 13:15:00,65.8,63.7,29.79,ESE,114,3.0,8.0,93,0.00,,,0.19,86,Wunderground v.1.15,2013-05-31 18:15:00,
2013-05-31 13:25:00,66.0,63.9,29.80,ESE,114,1.0,1.0,93,0.00,,,0.19,91,Wunderground v.1.15,2013-05-31 18:25:00,
2013-05-31 13:30:00,66.1,64.0,29.79,ESE,114,1.0,4.0,93,0.00,,,0.19,142,Wunderground v.1.15,2013-05-31 18:30:00,
2013-05-31 13:35:00,66.2,64.1,29.78,ESE,119,3.0,5.0,93,0.00,,,0.19,83,Wunderground v.1.15,2013-05-31 18:35:00,
2013-05-31 13:40:00,66.4,64.3,29.78,ESE,119,5.0,5.0,93,0.00,,,0.19,77,Wunderground v.1.15,2013-05-31 18:40:00,
2013-05-31 13:45:00,66.5,64.4,29.78,SE,135,4.0,5.0,93,0.51,,,0.22,134,Wunderground v.1.15,2013-05-31 18:45:00,
2013-05-31 13:55:00,66.8,64.7,29.80,SE,135,3.0,4.0,93,0.05,,,0.22,67,Wunderground v.1.15,2013-05-31 18:55:00,
2013-05-31 14:00:00,66.8,64.7,29.80,SE,138,4.0,4.0,93,0.04,,,0.22,144,Wunderground v.1.15,2013-05-31 19:00:00,
2013-05-31 14:05:00,66.9,64.8,29.79,SE,138,3.0,4.0,93,0.04,,,0.23,149,Wunderground v.1.15,2013-05-31 19:05:00,
2013-05-31 14:10:00,66.9,64.8,29.80,SE,144,3.0,3.0,93,0.10,,,0.24,40,Wunderground v.1.15,2013-05-31 19:10:00,
2013-05-31 14:15:00,66.8,64.7,29.80,SSE,149,3.0,5.0,93,0.07,,,0.24,18,Wunderground v.1.15,2013-05-31 19:15:00,
2013-05-31 14:20:00,66.7,64.9,29.80,WNW,294,4.0,7.0,94,0.04,,,0.24,16,Wunderground v.1.15,2013-05-31 19:20:00,
2013-05-31 14:30:00,66.2,64.4,29.80,WNW,302,6.0,6.0,94,0.13,,,0.27,9,Wunderground v.1.15,2013-05-31 19:30:00,
2013-05-31 14:35:00,65.9,64.1,29.77,WNW,302,4.0,6.0,94,3.03,,,0.40,28,Wunderground v.1.15,2013-05-31 19:35:00,
2013-05-31 14:40:00,65.8,64.3,29.77,WNW,302,1.0,1.0,95,0.35,,,0.46,26,Wunderground v.1.15,2013-05-31 19:40:00,
2013-05-31 14:45:00,65.7,64.2,29.76,WNW,302,0.0,1.0,95,0.09,,,0.46,32,Wunderground v.1.15,2013-05-31 19:45:00,
2013-05-31 14:50:00,65.5,64.0,29.75,WNW,302,0.0,0.0,95,0.06,,,0.47,35,Wunderground v.1.15,2013-05-31 19:50:00,
2013-05-31 15:00:00,65.3,63.8,29.76,WNW,302,0.0,0.0,95,0.05,,,0.47,33,Wunderground v.1.15,2013-05-31 20:00:00,
2013-05-31 15:05:00,65.3,64.1,29.75,WNW,302,0.0,0.0,96,0.04,,,0.47,40,Wunderground v.1.15,2013-05-31 20:05:00,
2013-05-31 15:10:00,65.2,64.0,29.75,WNW,302,0.0,0.0,96,0.00,,,0.47,76,Wunderground v.1.15,2013-05-31 20:10:00,
2013-05-31 15:15:00,65.2,64.0,29.75,WNW,302,0.0,2.0,96,0.00,,,0.47,111,Wunderground v.1.15,2013-05-31 20:15:00,
2013-05-31 15:20:00,65.3,64.1,29.75,WNW,302,2.0,3.0,96,0.00,,,0.47,97,Wunderground v.1.15,2013-05-31 20:20:00,
2013-05-31 15:25:00,65.4,64.2,29.74,WNW,302,3.0,4.0,96,0.00,,,0.47,134,Wunderground v.1.15,2013-05-31 20:25:00,
2013-05-31 15:35:00,66.0,65.1,29.74,WNW,302,2.0,4.0,97,0.00,,,0.47,824,Wunderground v.1.15,2013-05-31 20:35:00,
2013-05-31 15:40:00,66.5,65.6,29.74,ENE,68,4.0,4.0,97,0.00,,,0.47,914,Wunderground v.1.15,2013-05-31 20:40:00,
2013-05-31 15:45:00,67.1,66.2,29.73,East,93,5.0,6.0,97,0.00,,,0.47,879,Wunderground v.1.15,2013-05-31 20:45:00,
2013-05-31 15:50:00,67.6,66.7,29.73,East,96,5.0,5.0,97,0.00,,,0.47,793,Wunderground v.1.15,2013-05-31 20:50:00,
2013-05-31 15:55:00,68.3,67.7,29.73,East,97,5.0,5.0,98,0.00,,,0.47,812,Wunderground v.1.15,2013-05-31 20:55:00,
2013-05-31 16:05:00,69.0,68.1,29.73,ESE,117,7.0,8.0,97,0.00,,,0.47,752,Wunderground v.1.15,2013-05-31 21:05:00,
2013-05-31 16:10:00,69.5,68.6,29.73,SE,132,8.0,10.0,97,0.00,,,0.47,926,Wunderground v.1.15,2013-05-31 21:10:00,
2013-05-31 16:15:00,70.1,69.2,29.73,SE,126,8.0,10.0,97,0.00,,,0.47,875,Wunderground v.1.15,2013-05-31 21:15:00,
2013-05-31 16:20:00,70.2,69.3,29.73,SE,129,8.0,8.0,97,0.00,,,0.47,520,Wunderground v.1.15,2013-05-31 21:20:00,
2013-05-31 16:25:00,70.6,69.7,29.73,SE,144,8.0,8.0,97,0.00,,,0.47,297,Wunderground v.1.15,2013-05-31 21:25:00,
2013-05-31 16:30:00,70.8,69.6,29.73,SE,143,8.0,10.0,96,0.00,,,0.47,345,Wunderground v.1.15,2013-05-31 21:30:00,
2013-05-31 16:40:00,71.3,69.8,29.73,SSE,151,7.0,7.0,95,0.00,,,0.47,250,Wunderground v.1.15,2013-05-31 21:40:00,
2013-05-31 16:45:00,71.5,69.7,29.72,SSE,165,6.0,7.0,94,0.00,,,0.47,223,Wunderground v.1.15,2013-05-31 21:45:00,
2013-05-31 16:50:00,71.6,69.5,29.72,South,169,5.0,5.0,93,0.00,,,0.47,253,Wunderground v.1.15,2013-05-31 21:50:00,
2013-05-31 16:55:00,71.8,69.3,29.72,SSE,160,5.0,5.0,92,0.00,,,0.47,381,Wunderground v.1.15,2013-05-31 21:55:00,
2013-05-31 17:00:00,72.1,69.6,29.72,SSE,162,5.0,5.0,92,0.00,,,0.47,438,Wunderground v.1.15,2013-05-31 22:00:00,
2013-05-31 17:05:00,72.5,70.0,29.72,SSE,159,5.0,5.0,92,0.00,,,0.47,552,Wunderground v.1.15,2013-05-31 22:05:00,
2013-05-31 17:10:00,72.8,70.0,29.72,SSE,167,6.0,6.0,91,0.00,,,0.47,573,Wunderground v.1.15,2013-05-31 22:10:00,
2013-05-31 17:15:00,73.1,69.7,29.71,SSE,162,7.0,7.0,89,0.00,,,0.47,448,Wunderground v.1.15,2013-05-31 22:15:00,
2013-05-31 17:20:00,73.4,70.3,29.71,South,171,5.0,10.0,90,0.00,,,0.47,371,Wunderground v.1.15,2013-05-31 22:20:00,
2013-05-31 17:25:00,73.6,70.5,29.71,SSE,164,6.0,10.0,90,0.00,,,0.47,371,Wunderground v.1.15,2013-05-31 22:25:00,
2013-05-31 17:30:00,73.8,70.4,29.71,South,178,7.0,7.0,89,0.00,,,0.47,390,Wunderground v.1.15,2013-05-31 22:30:00,
2013-05-31 17:35:00,73.9,70.1,29.71,South,183,8.0,8.0,88,0.00,,,0.47,418,Wunderground v.1.15,2013-05-31 22:35:00,
2013-05-31 17:45:00,74.1,70.6,29.71,South,186,8.0,9.0,89,0.00,,,0.47,446,Wunderground v.1.15,2013-05-31 22:45:00,
2013-05-31 17:50:00,74.1,70.3,29.71,South,185,9.0,9.0,88,0.00,,,0.47,283,Wunderground v.1.15,2013-05-31 22:50:00,
2013-05-31 17:55:00,74.2,70.7,29.70,South,180,9.0,10.0,89,0.00,,,0.47,327,Wunderground v.1.15,2013-05-31 22:55:00,
2013-05-31 18:00:00,74.1,70.3,29.70,SSW,193,9.0,9.0,88,0.00,,,0.47,188,Wunderground v.1.15,2013-05-31 23:00:00,
2013-05-31 18:05:00,73.9,70.1,29.70,SSW,194,9.0,9.0,88,0.00,,,0.47,135,Wunderground v.1.15,2013-05-31 23:05:00,
2013-05-31 18:15:00,73.7,70.6,29.70,South,184,6.0,8.0,90,0.00,,,0.47,83,Wunderground v.1.15,2013-05-31 23:15:00,
2013-05-31 18:20:00,73.6,70.5,29.70,South,182,7.0,7.0,90,0.00,,,0.47,95,Wunderground v.1.15,2013-05-31 23:20:00,
2013-05-31 18:25:00,73.5,70.4,29.69,South,183,7.0,9.0,90,0.00,,,0.47,95,Wunderground v.1.15,2013-05-31 23:25:00,
2013-05-31 18:30:00,73.4,70.6,29.71,SSW,192,6.0,11.0,91,0.00,,,0.47,97,Wunderground v.1.15,2013-05-31 23:30:00,
2013-05-31 18:35:00,73.4,70.6,29.71,South,186,8.0,11.0,91,0.00,,,0.47,56,Wunderground v.1.15,2013-05-31 23:35:00,
2013-05-31 18:40:00,73.3,70.5,29.70,South,188,7.0,7.0,91,0.00,,,0.47,37,Wunderground v.1.15,2013-05-31 23:40:00,
2013-05-31 18:50:00,73.1,70.3,29.70,South,185,4.0,4.0,91,0.00,,,0.47,26,Wunderground v.1.15,2013-05-31 23:50:00,
2013-05-31 18:55:00,73.1,70.3,29.70,South,184,4.0,4.0,91,0.00,,,0.47,25,Wunderground v.1.15,2013-05-31 23:55:00,
2013-05-31 19:00:00,72.9,70.1,29.70,South,180,4.0,4.0,91,0.00,,,0.47,16,Wunderground v.1.15,2013-06-01 00:00:00,
2013-05-31 19:10:00,72.8,70.3,29.71,South,177,4.0,4.0,92,0.00,,,0.47,11,Wunderground v.1.15,2013-06-01 00:10:00,
2013-05-31 19:15:00,72.7,70.2,29.71,South,176,4.0,4.0,92,0.00,,,0.47,5,Wunderground v.1.15,2013-06-01 00:15:00,
2013-05-31 19:20:00,72.6,70.1,29.69,South,169,4.0,5.0,92,0.00,,,0.47,5,Wunderground v.1.15,2013-06-01 00:20:00,
2013-05-31 19:25:00,72.5,70.0,29.70,South,169,4.0,5.0,92,0.00,,,0.47,0,Wunderground v.1.15,2013-06-01 00:25:00,
2013-05-31 19:30:00,72.4,70.3,29.70,South,169,4.0,4.0,93,0.00,,,0.47,0,Wunderground v.1.15,2013-06-01 00:30:00,
2013-05-31 19:35:00,72.3,70.2,29.69,SSE,168,3.0,6.0,93,0.00,,,0.47,0,Wunderground v.1.15,2013-06-01 00:35:00,
2013-05-31 19:40:00,72.2,70.1,29.68,SSE,162,4.0,7.0,93,0.00,,,0.47,0,Wunderground v.1.15,2013-06-01 00:40:00,
2013-05-31 19:45:00,72.1,70.0,29.70,SSE,162,5.0,7.0,93,0.00,,,0.47,0,Wunderground v.1.15,2013-06-01 00:45:00,
2013-05-31 19:55:00,72.1,70.3,29.70,SSE,162,4.0,5.0,94,0.00,,,0.47,0,Wunderground v.1.15,2013-06-01 00:55:00,
2013-05-31 20:00:00,72.1,70.3,29.70,SSE,163,6.0,6.0,94,0.00,,,0.47,0,Wunderground v.1.15,2013-06-01 01:00:00,
2013-05-31 20:10:00,72.6,70.8,29.71,South,184,4.0,4.0,94,0.00,,,0.47,0,Wunderground v.1.15,2013-06-01 01:10:00,
2013-05-31 20:15:00,72.8,70.7,29.71,SSE,155,4.0,9.0,93,0.00,,,0.48,0,Wunderground v.1.15,2013-06-01 01:15:00,
2013-05-31 20:20:00,72.9,70.8,29.70,SSE,161,5.0,5.0,93,0.00,,,0.48,0,Wunderground v.1.15,2013-06-01 01:20:00,
2013-05-31 20:25:00,72.8,70.7,29.69,SE,129,6.0,6.0,93,0.00,,,0.48,0,Wunderground v.1.15,2013-06-01 01:25:00,
2013-05-31 20:30:00,72.8,71.0,29.69,SSE,167,7.0,7.0,94,0.04,,,0.49,0,Wunderground v.1.15,2013-06-01 01:30:00,
2013-05-31 20:35:00,72.8,71.0,29.70,South,178,7.0,7.0,94,0.04,,,0.49,0,Wunderground v.1.15,2013-06-01 01:35:00,
2013-05-31 20:40:00,72.8,71.0,29.71,SSE,158,7.0,8.0,94,0.04,,,0.49,0,Wunderground v.1.15,2013-06-01 01:40:00,
2013-05-31 20:45:00,72.8,70.7,29.68,SE,138,7.0,8.0,93,0.00,,,0.49,0,Wunderground v.1.15,2013-06-01 01:45:00,
2013-05-31 20:50:00,72.7,70.6,29.70,SE,132,6.0,6.0,93,0.00,,,0.50,0,Wunderground v.1.15,2013-06-01 01:50:00,
2013-05-31 21:00:00,72.6,70.5,29.71,SE,132,2.0,3.0,93,0.07,,,0.51,0,Wunderground v.1.15,2013-06-01 02:00:00,
2013-05-31 21:10:00,72.6,70.1,29.70,SSE,150,4.0,4.0,92,0.06,,,0.52,0,Wunderground v.1.15,2013-06-01 02:10:00,
2013-05-31 21:15:00,72.5,70.0,29.69,SSE,150,4.0,5.0,92,0.06,,,0.52,0,Wunderground v.1.15,2013-06-01 02:15:00,
2013-05-31 21:20:00,72.5,70.0,29.68,SSE,151,5.0,6.0,92,0.05,,,0.52,0,Wunderground v.1.15,2013-06-01 02:20:00,
2013-05-31 21:25:00,72.4,69.6,29.67,SSE,163,6.0,6.0,91,0.00,,,0.52,0,Wunderground v.1.15,2013-06-01 02:25:00,
2013-05-31 21:35:00,72.3,68.9,29.67,SSE,165,5.0,7.0,89,0.00,,,0.52,0,Wunderground v.1.15,2013-06-01 02:35:00,
2013-05-31 21:40:00,72.2,68.8,29.67,SSE,165,4.0,4.0,89,0.00,,,0.52,0,Wunderground v.1.15,2013-06-01 02:40:00,
2013-05-31 21:45:00,72.0,68.2,29.67,SSE,165,4.0,4.0,88,0.00,,,0.52,0,Wunderground v.1.15,2013-06-01 02:45:00,
2013-05-31 21:50:00,71.8,67.7,29.68,SSE,166,4.0,5.0,87,0.00,,,0.52,0,Wunderground v.1.15,2013-06-01 02:50:00,
2013-05-31 21:55:00,71.6,67.2,29.69,SSE,167,5.0,5.0,86,0.00,,,0.52,0,Wunderground v.1.15,2013-06-01 02:55:00,
2013-05-31 22:00:00,71.3,67.2,29.70,SSE,167,5.0,5.0,87,0.00,,,0.52,0,Wunderground v.1.15,2013-06-01 03:00:00,
2013-05-31 22:10:00,70.7,67.0,29.70,South,169,5.0,7.0,88,0.00,,,0.52,0,Wunderground v.1.15,2013-06-01 03:10:00,
2013-05-31 22:15:00,70.4,67.0,29.71,South,174,6.0,7.0,89,0.00,,,0.52,0,Wunderground v.1.15,2013-06-01 03:15:00,
2013-05-31 22:20:00,70.1,66.7,29.71,WSW,241,7.0,8.0,89,0.00,,,0.52,0,Wunderground v.1.15,2013-06-01 03:20:00,
2013-05-31 22:25:00,69.9,66.5,29.70,WSW,239,7.0,8.0,89,0.00,,,0.52,0,Wunderground v.1.15,2013-06-01 03:25:00,
2013-05-31 22:30:00,69.7,66.6,29.71,WSW,237,7.0,7.0,90,0.00,,,0.52,0,Wunderground v.1.15,2013-06-01 03:30:00,
2013-05-31 22:40:00,69.3,66.6,29.71,WSW,237,5.0,5.0,91,0.00,,,0.52,0,Wunderground v.1.15,2013-06-01 03:40:00,
2013-05-31 22:45:00,69.1,66.7,29.71,WSW,237,5.0,5.0,92,0.00,,,0.52,0,Wunderground v.1.15,2013-06-01 03:45:00,
2013-05-31 22:50:00,68.9,66.2,29.72,WSW,237,5.0,6.0,91,0.00,,,0.52,0,Wunderground v.1.15,2013-06-01 03:50:00,
2013-05-31 22:55:00,68.7,66.0,29.72,SW,223,6.0,7.0,91,0.00,,,0.52,0,Wunderground v.1.15,2013-06-01 03:55:00,
2013-05-31 23:00:00,68.6,65.5,29.72,SW,221,8.0,8.0,90,0.00,,,0.52,0,Wunderground v.1.15,2013-06-01 04:00:00,
2013-05-31 23:05:00,68.5,65.4,29.73,SW,221,9.0,11.0,90,0.00,,,0.52,0,Wunderground v.1.15,2013-06-01 04:05:00,
2013-05-31 23:10:00,68.4,65.4,29.73,SW,221,10.0,10.0,90,0.00,,,0.52,0,Wunderground v.1.15,2013-06-01 04:10:00,
2013-05-31 23:15:00,68.3,65.3,29.72,SW,218,10.0,10.0,90,0.00,,,0.52,0,Wunderground v.1.15,2013-06-01 04:15:00,
2013-05-31 23:20:00,68.1,65.1,29.72,SSW,209,8.0,8.0,90,0.00,,,0.52,0,Wunderground v.1.15,2013-06-01 04:20:00,
2013-05-31 23:25:00,68.0,65.0,29.71,SSW,205,8.0,8.0,90,0.00,,,0.52,0,Wunderground v.1.15,2013-06-01 04:25:00,
2013-05-31 23:30:00,67.8,64.8,29.71,SSW,202,7.0,7.0,90,0.00,,,0.52,0,Wunderground v.1.15,2013-06-01 04:30:00,
2013-05-31 23:35:00,67.7,64.7,29.71,South,188,7.0,10.0,90,0.00,,,0.52,0,Wunderground v.1.15,2013-06-01 04:35:00,
2013-05-31 23:45:00,67.5,64.5,29.67,South,173,9.0,9.0,90,0.00,,,0.52,0,Wunderground v.1.15,2013-06-01 04:45:00,
2013-05-31 23:50:00,67.4,64.4,29.69,South,169,8.0,8.0,90,0.00,,,0.52,0,Wunderground v.1.15,2013-06-01 04:50:00,
2013-05-31 23:55:00,67.3,64.3,29.70,South,184,7.0,8.0,90,0.00,,,0.52,0,Wunderground v.1.15,2013-06-01 04:55:00,